Hourly Data Report for July 15, 2021

SALLUIT
QUEBEC
Current Station Operator: ECCC - MSC

62°10'46.005" N
75°40'13.006" W
228.00 m
7117800
71641
MFX

Download Data

Hourly Data (July 2021)
Hourly Data Report for July 15, 2021
TIME
LST
Temp Definition
°C
Dew Point Definition
°C
Rel Hum Definition
%
Precip. Amount Definition
mm

Wind Dir Definition
10's deg

Wind Spd Definition
km/h
Visibility Definition
km
Stn Press Definition
kPa
Hmdx Definition


Wind Chill Definition


Weather Definition


00:00 6.9 2.3 72 0.0 11 2   98.14     LegendNANA
01:00 7.0 1.8 69 0.0 13 7   98.11     LegendNANA
02:00 6.7 1.9 72 0.0 20 1   98.13     LegendNANA
03:00 6.6 1.6 71 0.0 30 2   98.11     LegendNANA
04:00 6.8 1.9 71 0.0 21 3   98.09     LegendNANA
05:00 6.7 3.2 78 0.0 25 4   98.05     LegendNANA
06:00 7.9 3.2 72 0.0 24 4   98.06     LegendNANA
07:00 9.6 3.1 64 0.0 24 5   98.02     LegendNANA
08:00 11.7 1.6 50 0.0 24 1   98.01     LegendNANA
09:00 13.4 4.1 53 0.0 24 3   97.96     LegendNANA
10:00 14.5 3.3 47 0.0 5 7   97.93     LegendNANA
11:00 14.3 3.1 47 0.0 2 12   97.89     LegendNANA
12:00 14.1 3.4 48 0.0 3 18   97.89     LegendNANA
13:00 13.8 3.3 49 0.0 3 22   97.90     LegendNANA
14:00 13.9 2.7 47 0.0 2 20   97.90     LegendNANA
15:00 15.0 2.8 44 0.0 2 12   97.88     LegendNANA
16:00 15.1 3.9 47 0.0 2 10   97.87     LegendNANA
17:00 14.1 3.7 49 0.0 4 9   97.88     LegendNANA
18:00 14.1 4.4 52 0.0 4 3   97.89     LegendNANA
19:00 13.6 5.5 58 0.0 10 2   97.89     LegendNANA
20:00 13.8 6.7 62 0.0 15 1   97.88     LegendNANA
21:00 13.5 5.6 59 0.0 5 2   97.90     LegendNANA
22:00 13.1 4.9 58 0.0 5 3   97.89     LegendNANA
23:00 12.7 5.2 60 0.0 28 4   97.86     LegendNANA

Notes on Data Quality.

Legend

  • E = Estimated
  • M = Missing
  • NA = Not Available*
  • [empty] = Indicates an unobserved value
Date modified: